Location: Neuvy Saint Sepulchre
(46.5953°N, 1.8122°E)
Time: 07:17:07
(UTC+01:00)

ISS - Pass Details

Date: 30 November 2019
Orbit: 411 x 421 km, 51.6° (Epoch: 08 December)

Event Time Altitude Azimuth Distance (km) Brightness Sun altitude
Rises 18:22:50 0° 271° (W) 2,353 1.5 -12.5°
Reaches altitude 10° 18:25:01 10° 280° (W) 1,493 0.1 -12.9°
Maximum altitude 18:28:10 37° 350° (N) 665 -2.8 -13.4°
Enters shadow 18:29:46 23° 43° (NE) 953 -2.5 -13.6°
